This is the latest recevied weather packets stored in our database for station/object W5CRT. If no packets are shown the sender has not sent any weather packets the latest 10 day(s).
| Time | Temp. | Humidity | Pressure | Rain* | Wind** | Luminosity | Snow |
|---|---|---|---|---|---|---|---|
| 1778012267 | 30° C | 62% | 1002.9 hPa | 0 mm | - | 988 W/m² | - |
| 1778011965 | 30.56° C | 61% | 1003.1 hPa | 0 mm | - | 940 W/m² | - |
| 1778011664 | 30.56° C | 61% | 1003.4 hPa | 0 mm | - | 860 W/m² | - |
| 1778011360 | 30.56° C | 63% | 1003.4 hPa | 0 mm | - | 1042 W/m² | - |
| 1778011055 | 30° C | 63% | 1003.1 hPa | 0 mm | - | 1035 W/m² | - |
| 1778010753 | 30° C | 63% | 1003.4 hPa | 0 mm | - | 938 W/m² | - |
| 1778010450 | 29.44° C | 65% | 1003.5 hPa | 0 mm | - | 865 W/m² | - |
| 1778010147 | 29.44° C | 64% | 1003.5 hPa | 0 mm | - | 784 W/m² | - |
| 1778009842 | 29.44° C | 64% | 1003.3 hPa | 0 mm | - | 1002 W/m² | - |
| 1778009540 | 29.44° C | 65% | 1003.4 hPa | 0 mm | - | 976 W/m² | - |
| 1778009239 | 29.44° C | 64% | 1003.4 hPa | 0 mm | - | 933 W/m² | - |
| 1778008936 | 28.89° C | 66% | 1003.4 hPa | 0 mm | - | 885 W/m² | - |
| 1778008634 | 28.33° C | 66% | 1003.3 hPa | 0 mm | - | 822 W/m² | - |
| 1778008332 | 28.33° C | 68% | 1003.4 hPa | 0 mm | - | 788 W/m² | - |
| 1778008028 | 28.33° C | 65% | 1003.3 hPa | 0 mm | - | 739 W/m² | - |
| 1778007727 | 28.33° C | 65% | 1003.3 hPa | 0 mm | - | 782 W/m² | - |
| 1778007425 | 28.33° C | 66% | 1003.4 hPa | 0 mm | - | 726 W/m² | - |
| 1778007121 | 28.33° C | 66% | 1003.2 hPa | 0 mm | - | 532 W/m² | - |
| 1778006817 | 27.78° C | 67% | 1003.6 hPa | 0 mm | - | 489 W/m² | - |
| 1778006514 | 27.78° C | 67% | 1003.6 hPa | 0 mm | - | 458 W/m² | - |
| 1778006211 | 28.33° C | 66% | 1003.4 hPa | 0 mm | - | 403 W/m² | - |
| 1778005909 | 28.33° C | 66% | 1003.3 hPa | 0 mm | - | 510 W/m² | - |
| 1778005605 | 28.33° C | 65% | 1003.5 hPa | 0 mm | - | 436 W/m² | - |
| 1778005302 | 28.33° C | 63% | 1003.6 hPa | 0 mm | - | 473 W/m² | - |
| 1778004998 | 28.33° C | 65% | 1003.5 hPa | 0 mm | - | 582 W/m² | - |
* Rain latest hour (hover to see other rain measurements)
** Current wind speed in m/s (hover to see current wind gust speed)